STARLINK-35548, 66203

Orbit data source: Space-Track

STARLINK-35548, 66203 is a payload satellite owned by SpaceX/Seattle (US) in LEO that was launched on Sun, 26 Oct 2025 UTC via an FALCON 9 launch vehicle from the Air Force Eastern Test Range (AFETR). Payload-class satellites include a variety of spacecraft equipped with specific instruments for various scientific and technological missions. These include communications satellites like Starlink; space stations such as the ISS; scientific satellites like the Hubble; Earth observation satellites from companies like Planet Labs, Umbra, and HawkEye 360; GPS; miniature CubeSats for education and research; and military/defense satellites.

Loading next visibility...
Identifier
66203, 2025-243AC
Orbit
LEO
Country
Flag of USUS
Related business
Manufacturer
SpaceX/Seattle
Mission
Operational Commercial Communications
Bus & Motor
STARLINK V2MO, Unknown motor
Mass
575 kg wet, ~530 kg dry
Launch date (UTC)
2025-10-26 (4 months ago)
Launch vehicle
FALCON 9
Launch site
Air Force Eastern Test Range (AFETR)
Object type
Payload
Rocket body
Debris
Shape & HBR
Box + 2 Pan, 17.7 m
Radar Cross Section
36.964 m²

Expand to show TLE details & history
Last TLE update: 9 hours ago

TLE from 9 hours ago
0 STARLINK-35548
1 66203U 25243AC  26061.76578870  .00015158  00000-0  52288-3 0  9994
2 66203  53.1568 277.4149 0000972  98.2682 261.8429 15.30198033 19593
Epoch: 2026-03-02T18:22Z
TLE epoch observation values (Epoch: 2026-03-02T18:22:44.143Z)
Latitude
-0.00003°
Longitude
-158.82355°
Altitude
476.215 km
Speed
7.629 km/s
True Right ascension
18h 29m 39s
True Declination
0° 00' 00"
Sunlit
Object was in daylight at epoch
Visualization orbit readout
Latitude
Unknown
Longitude
Unknown
Altitude
Unknown
Speed
Unknown
Apparent Right ascension
Unknown
Apparent Declination
Unknown
Sunlit
N/A
Visualization observer readout
Local Sidereal Time
07:12:27
Azimuth
Unknown
Elevation
Unknown
Doppler factor
Unknown
Orbital elements
Apogee altitude
476.144 km
Perigee altitude
474.812 km
Semi-major axis
6,853.615 km
Eccentricity
0.0001
Inclination
53.1568°
RAAN
277.4149°
Arg. of periapsis
98.2682°
True anomaly
261.83187°
Mean anomaly
261.8429°
Eccentric anomaly
261.83739°
Mean motion
3.82528 °/min
Orbital period
94.11 mins
BSTAR
0.00052288
Loading maneuver chart data...
Computing Atmospheric mass density...
Loading historical data...
Loading historical data...
Loading historical data...
Loading historical data...
Loading historical data...
Loading historical data...
Loading historical data...

Documentation

Showing up to 5 results
|